| time (UTC) | temp C | wind direction | speed KPH | gust KPH | rain 1hr cm | rain 24hr cm | rain mn cm | humidity % | barometer mb |
| 20260507092035 | 13 | 30 | 1.6 | 8.0 | 0.00 | 0.10 | 0.00 | 60 | 1014.4 |
| 20260507085032 | 12 | 127 | 0.0 | 9.7 | 0.00 | 0.10 | 0.00 | 63 | 1014.2 |
| 20260507082032 | 12 | 67 | 1.6 | 8.0 | 0.00 | 0.10 | 0.00 | 66 | 1014.1 |
| 20260507075043 | 11 | 154 | 0.0 | 8.0 | 0.00 | 0.10 | 0.00 | 69 | 1014.0 |
| 20260507072042 | 10 | 116 | 0.0 | 6.4 | 0.00 | 0.10 | 0.00 | 69 | 1013.9 |
| 20260507065039 | 10 | 107 | 0.0 | 9.7 | 0.00 | 0.10 | 0.00 | 70 | 1013.5 |
| 20260507062037 | 8 | 71 | 0.0 | 3.2 | 0.00 | 0.10 | 0.00 | 68 | 1013.4 |
| 20260507055025 | 7 | 41 | 0.0 | 3.2 | 0.00 | 0.10 | 0.00 | 54 | 1013.2 |
| 20260507052025 | 6 | 6 | 0.0 | 0.0 | 0.00 | 0.10 | 0.00 | 55 | 1012.9 |
| 20260507042037 | 6 | 13 | 0.0 | 1.6 | 0.00 | 0.10 | 0.00 | 54 | 1012.3 |
| 20260507035032 | 6 | 27 | 0.0 | 0.0 | 0.00 | 0.10 | 0.00 | 55 | 1012.0 |
| 20260507032027 | 6 | 75 | 0.0 | 3.2 | 0.00 | 0.10 | 0.00 | 58 | 1011.8 |
| 20260507025025 | 6 | 65 | 0.0 | 3.2 | 0.00 | 0.10 | 0.00 | 59 | 1011.5 |
| 20260507012040 | 6 | 38 | 0.0 | 1.6 | 0.00 | 0.10 | 0.00 | 60 | 1010.9 |
| 20260507005035 | 6 | 41 | 0.0 | 0.0 | 0.00 | 0.10 | 0.00 | 60 | 1010.8 |
| 20260507002030 | 7 | 139 | 0.0 | 3.2 | 0.00 | 0.10 | 0.00 | 63 | 1010.8 |
| 20260506235043 | 7 | 324 | 0.0 | 3.2 | 0.00 | 0.10 | 0.00 | 62 | 1010.6 |
| 20260506232042 | 7 | 146 | 0.0 | 0.0 | 0.00 | 0.10 | 0.00 | 61 | 1010.8 |
| 20260506222043 | 7 | 265 | 0.0 | 1.6 | 0.00 | 0.10 | 0.00 | 61 | 1010.3 |
| 20260506215043 | 7 | 143 | 1.6 | 4.8 | 0.00 | 0.10 | 0.03 | 61 | 1010.1 |
| 20260506212039 | 8 | 290 | 0.0 | 1.6 | 0.00 | 0.10 | 0.03 | 58 | 1009.9 |
| 20260506205039 | 8 | 237 | 0.0 | 6.4 | 0.00 | 0.10 | 0.03 | 57 | 1009.7 |
| 20260506202036 | 8 | 25 | 0.0 | 4.8 | 0.00 | 0.10 | 0.03 | 53 | 1009.6 |
| 20260506195035 | 8 | 25 | 0.0 | 0.0 | 0.00 | 0.10 | 0.03 | 51 | 1009.3 |
| 20260506192035 | 8 | 64 | 0.0 | 1.6 | 0.00 | 0.10 | 0.03 | 54 | 1009.0 |
| 20260506185031 | 8 | 107 | 0.0 | 3.2 | 0.00 | 0.10 | 0.03 | 54 | 1008.7 |
| 20260506182036 | 8 | 325 | 0.0 | 3.2 | 0.00 | 0.10 | 0.03 | 54 | 1008.4 |
| 20260506175028 | 9 | 33 | 0.0 | 3.2 | 0.00 | 0.10 | 0.03 | 54 | 1008.2 |
| 20260506172026 | 9 | 276 | 1.6 | 6.4 | 0.00 | 0.10 | 0.03 | 56 | 1008.1 |
| 20260506165026 | 9 | 19 | 0.0 | 3.2 | 0.10 | 0.10 | 0.03 | 59 | 1007.8 |
| 20260506162041 | 10 | 354 | 0.0 | 4.8 | 0.10 | 0.10 | 0.03 | 64 | 1007.7 |
| 20260506155038 | 10 | 66 | 0.0 | 1.6 | 0.00 | 0.00 | 0.00 | 71 | 1007.8 |
| 20260506152037 | 11 | 59 | 1.6 | 8.0 | 0.00 | 0.00 | 0.00 | 73 | 1007.8 |
| 20260506145036 | 11 | 91 | 0.0 | 6.4 | 0.00 | 0.00 | 0.00 | 71 | 1007.9 |
| 20260506135026 | 12 | 18 | 0.0 | 8.0 | 0.00 | 0.00 | 0.00 | 71 | 1007.7 |
| 20260506132042 | 12 | 154 | 0.0 | 6.4 | 0.00 | 0.00 | 0.00 | 70 | 1007.6 |
| 20260506125038 | 13 | 270 | 0.0 | 9.7 | 0.00 | 0.00 | 0.00 | 62 | 1007.6 |
| 20260506122035 | 13 | 65 | 3.2 | 9.7 | 0.00 | 0.00 | 0.00 | 63 | 1007.6 |
| 20260506115025 | 12 | 356 | 1.6 | 9.7 | 0.00 | 0.00 | 0.00 | 66 | 1007.5 |
| 20260506112044 | 12 | 135 | 0.0 | 8.0 | 0.00 | 0.00 | 0.00 | 68 | 1007.4 |
| 20260506105039 | 11 | 284 | 0.0 | 4.8 | 0.00 | 0.00 | 0.00 | 70 | 1007.5 |
| 20260506102037 | 11 | 49 | 0.0 | 6.4 | 0.00 | 0.00 | 0.00 | 70 | 1007.4 |